When you browse on this site, cookies collect data to enhance your experience and personalize the content and advertising you see.
Visit our Privacy Policy to learn more. By continuing to use the site, you agree to this use of cookies and data.
  • In Hungary
  • List of Countries
  • For 7 days
  • Water Temperature
  • Weather Map
  • News
  • Weather Widgets
  • user-avatar
    Login

    Hourly Weather Micharzewo

    Today, 22 August, Thursday

    Time Temperature Precipitation Wind Pressure Humidity
    00:00 +15°C° 0 mm 1 mps 763 mmHg 77%
    01:00 +15°C° 0 mm 2 mps 763 mmHg 77%
    02:00 +15°C° 0 mm 1 mps 763 mmHg 79%
    03:00 +14°C° 0 mm 1 mps 763 mmHg 80%
    04:00 +14°C° 0 mm 1 mps 763 mmHg 81%
    05:00 +15°C° 0 mm 1 mps 763 mmHg 79%
    06:00 +16°C° 0 mm 1 mps 764 mmHg 77%
    07:00 +17°C° 0 mm 2 mps 764 mmHg 75%
    08:00 +18°C° 0 mm 2 mps 764 mmHg 70%
    09:00 +20°C° 0 mm 2 mps 764 mmHg 64%
    10:00 +21°C° 0 mm 2 mps 764 mmHg 58%
    11:00 +22°C° 0 mm 3 mps 764 mmHg 55%
    12:00 +24°C° 0 mm 3 mps 763 mmHg 52%
    13:00 +24°C° 0 mm 3 mps 763 mmHg 48%
    14:00 +25°C° 0 mm 2 mps 763 mmHg 48%
    15:00 +25°C° 0 mm 2 mps 763 mmHg 48%
    16:00 +25°C° 0 mm 2 mps 762 mmHg 48%
    17:00 +24°C° 0 mm 2 mps 762 mmHg 52%
    18:00 +21°C° 0 mm 2 mps 762 mmHg 56%
    19:00 +20°C° 0 mm 2 mps 762 mmHg 61%
    20:00 +19°C° 0 mm 2 mps 762 mmHg 63%
    21:00 +19°C° 0 mm 2 mps 762 mmHg 66%
    22:00 +18°C° 0 mm 2 mps 763 mmHg 69%
    23:00 +17°C° 0 mm 2 mps 763 mmHg 70%

    Tomorrow, 23 August, Friday

    Time Temperature Precipitation Wind Pressure Humidity
    00:00 +17°C° 0 mm 2 mps 763 mmHg 71%
    01:00 +16°C° 0 mm 3 mps 763 mmHg 72%
    02:00 +16°C° 0 mm 2 mps 763 mmHg 73%
    03:00 +15°C° 0 mm 2 mps 763 mmHg 74%
    04:00 +15°C° 0 mm 2 mps 763 mmHg 74%
    05:00 +16°C° 0 mm 2 mps 763 mmHg 72%
    06:00 +17°C° 0 mm 2 mps 763 mmHg 69%
    07:00 +18°C° 0 mm 2 mps 763 mmHg 67%
    08:00 +20°C° 0 mm 2 mps 763 mmHg 61%
    09:00 +21°C° 0 mm 2 mps 763 mmHg 56%
    10:00 +24°C° 0 mm 2 mps 763 mmHg 50%
    11:00 +25°C° 0 mm 3 mps 763 mmHg 47%
    12:00 +26°C° 0 mm 3 mps 762 mmHg 45%
    13:00 +26°C° 0 mm 3 mps 762 mmHg 43%
    14:00 +27°C° 0 mm 3 mps 762 mmHg 43%
    15:00 +27°C° 0 mm 3 mps 761 mmHg 43%
    16:00 +27°C° 0 mm 3 mps 761 mmHg 43%
    17:00 +25°C° 0 mm 3 mps 761 mmHg 48%
    18:00 +24°C° 0 mm 2 mps 761 mmHg 53%
    19:00 +21°C° 0 mm 2 mps 761 mmHg 58%
    20:00 +20°C° 0 mm 2 mps 761 mmHg 60%
    21:00 +19°C° 0 mm 2 mps 761 mmHg 62%
    22:00 +19°C° 0 mm 3 mps 761 mmHg 64%
    23:00 +18°C° 0 mm 3 mps 761 mmHg 65%

    Day after tomorrow, 24 August, Saturday

    Time Temperature Precipitation Wind Pressure Humidity
    00:00 +18°C° 0 mm 3 mps 761 mmHg 67%
    01:00 +17°C° 0 mm 3 mps 760 mmHg 68%
    02:00 +17°C° 0 mm 3 mps 760 mmHg 70%
    03:00 +17°C° 0 mm 3 mps 760 mmHg 72%
    04:00 +16°C° 0 mm 3 mps 760 mmHg 75%
    05:00 +17°C° 0 mm 3 mps 760 mmHg 73%
    06:00 +18°C° 0 mm 3 mps 760 mmHg 71%
    07:00 +19°C° 0 mm 3 mps 760 mmHg 69%
    08:00 +21°C° 0 mm 4 mps 760 mmHg 63%
    09:00 +22°C° 0 mm 4 mps 760 mmHg 58%
    10:00 +25°C° 0 mm 4 mps 760 mmHg 52%
    11:00 +26°C° 0 mm 4 mps 760 mmHg 50%
    12:00 +27°C° 0 mm 4 mps 759 mmHg 49%
    13:00 +27°C° 0 mm 4 mps 759 mmHg 48%
    14:00 +27°C° 0 mm 4 mps 759 mmHg 49%
    15:00 +27°C° 0 mm 4 mps 758 mmHg 50%
    16:00 +27°C° 0 mm 3 mps 758 mmHg 51%
    17:00 +26°C° 0 mm 3 mps 758 mmHg 55%
    18:00 +25°C° 0 mm 3 mps 758 mmHg 59%
    19:00 +22°C° 0 mm 3 mps 758 mmHg 63%
    20:00 +22°C° 0 mm 4 mps 758 mmHg 64%
    21:00 +22°C° 0 mm 4 mps 758 mmHg 64%
    22:00 +21°C° 0 mm 4 mps 758 mmHg 65%
    23:00 +21°C° 0 mm 4 mps 758 mmHg 67%

    25 August, Sunday

    Time Temperature Precipitation Wind Pressure Humidity
    00:00 +20°C° 0 mm 4 mps 758 mmHg 69%
    01:00 +20°C° 0 mm 4 mps 758 mmHg 71%
    02:00 +19°C° 0 mm 4 mps 758 mmHg 72%
    03:00 +19°C° 0 mm 4 mps 757 mmHg 73%
    04:00 +19°C° 0 mm 4 mps 757 mmHg 74%
    05:00 +19°C° 0 mm 4 mps 757 mmHg 72%
    06:00 +20°C° 0 mm 5 mps 757 mmHg 70%
    07:00 +20°C° 0 mm 5 mps 758 mmHg 68%
    08:00 +22°C° 0 mm 5 mps 758 mmHg 64%
    09:00 +23°C° 0 mm 5 mps 758 mmHg 59%
    10:00 +26°C° 0 mm 6 mps 758 mmHg 55%
    11:00 +27°C° 0 mm 5 mps 758 mmHg 53%
    12:00 +27°C° 0 mm 5 mps 758 mmHg 51%
    13:00 +28°C° 0 mm 5 mps 757 mmHg 49%
    14:00 +28°C° 0 mm 5 mps 757 mmHg 49%
    15:00 +28°C° 0 mm 5 mps 757 mmHg 49%
    16:00 +29°C° 0 mm 5 mps 757 mmHg 49%
    17:00 +27°C° 0 mm 4 mps 757 mmHg 54%
    18:00 +26°C° 0 mm 4 mps 757 mmHg 58%
    19:00 +23°C° 0 mm 4 mps 757 mmHg 62%
    20:00 +23°C° 0.1 mm 4 mps 757 mmHg 63%
    21:00 +22°C° 0.1 mm 4 mps 757 mmHg 64%
    22:00 +22°C° 0.1 mm 5 mps 757 mmHg 64%
    23:00 +21°C° 0.3 mm 4 mps 757 mmHg 67%

    26 August, Monday

    Time Temperature Precipitation Wind Pressure Humidity
    00:00 +21°C° 0.3 mm 4 mps 757 mmHg 70%
    01:00 +21°C° 0.3 mm 4 mps 757 mmHg 73%
    02:00 +20°C° 0.2 mm 4 mps 757 mmHg 76%
    03:00 +20°C° 0.2 mm 4 mps 757 mmHg 79%
    04:00 +19°C° 0.2 mm 4 mps 757 mmHg 81%
    05:00 +20°C° 0.2 mm 4 mps 757 mmHg 80%
    06:00 +20°C° 0.2 mm 4 mps 757 mmHg 79%
    07:00 +21°C° 0.2 mm 4 mps 757 mmHg 78%
    08:00 +22°C° 0.1 mm 4 mps 757 mmHg 74%
    09:00 +23°C° 0.1 mm 4 mps 757 mmHg 69%
    10:00 +26°C° 0.1 mm 4 mps 757 mmHg 65%
    11:00 +27°C° 0 mm 4 mps 757 mmHg 61%
    12:00 +28°C° 0 mm 4 mps 757 mmHg 57%
    13:00 +30°C° 0 mm 3 mps 757 mmHg 53%
    14:00 +29°C° 0 mm 3 mps 757 mmHg 54%
    15:00 +29°C° 0 mm 2 mps 757 mmHg 56%
    16:00 +29°C° 0 mm 2 mps 756 mmHg 57%
    17:00 +28°C° 0 mm 1 mps 756 mmHg 60%
    18:00 +27°C° 0 mm 1 mps 756 mmHg 63%
    19:00 +26°C° 0 mm 1 mps 756 mmHg 66%
    20:00 +25°C° 0 mm 1 mps 756 mmHg 68%
    21:00 +25°C° 0 mm 1 mps 756 mmHg 70%
    22:00 +24°C° 0 mm 2 mps 757 mmHg 72%
    23:00 +23°C° 0.1 mm 1 mps 757 mmHg 74%

    27 August, Tuesday

    Time Temperature Precipitation Wind Pressure Humidity
    00:00 +23°C° 0.1 mm 1 mps 757 mmHg 77%
    01:00 +23°C° 0.1 mm 1 mps 757 mmHg 79%
    02:00 +22°C° 0 mm 1 mps 756 mmHg 81%
    03:00 +22°C° 0 mm 1 mps 756 mmHg 82%
    04:00 +22°C° 0 mm 1 mps 756 mmHg 84%
    05:00 +21°C° 0 mm 2 mps 756 mmHg 82%
    06:00 +23°C° 0 mm 2 mps 756 mmHg 81%
    07:00 +23°C° 0 mm 2 mps 757 mmHg 79%
    08:00 +25°C° 0 mm 2 mps 757 mmHg 73%
    09:00 +27°C° 0 mm 2 mps 757 mmHg 66%
    10:00 +29°C° 0 mm 2 mps 757 mmHg 59%
    11:00 +30°C° 0 mm 2 mps 756 mmHg 55%
    12:00 +31°C° 0 mm 2 mps 756 mmHg 51%
    13:00 +32°C° 0 mm 2 mps 756 mmHg 46%
    14:00 +32°C° 0 mm 2 mps 756 mmHg 46%
    15:00 +32°C° 0 mm 2 mps 756 mmHg 45%
    16:00 +32°C° 0 mm 2 mps 755 mmHg 44%
    17:00 +30°C° 0 mm 2 mps 755 mmHg 49%
    18:00 +29°C° 0 mm 2 mps 755 mmHg 54%
    19:00 +27°C° 0 mm 2 mps 755 mmHg 59%
    20:00 +26°C° 0.9 mm 2 mps 755 mmHg 65%
    21:00 +25°C° 0.9 mm 2 mps 755 mmHg 71%
    22:00 +24°C° 0.9 mm 2 mps 755 mmHg 78%
    23:00 +24°C° 0.8 mm 2 mps 755 mmHg 79%
    Show more